Weather in Chernyy Porog

Russia / Republic of Karelia     63°59′49″N   33°39′19″E
temp.,
°C
wind,
m/s
gust,
m/s
humid.,
%
clouds,
%
prec.,
mm/h
press.,
hPa
HPBL,
m
25 july, sun
sun2500:00+11wnw116376 0.0 101210
03:00+9wsw237670 0.0 101356
06:00+14w396799 0.0 1012325
09:00+14w396499 0.0 1013550
12:00+17w475422 0.0 1013807
15:00+18nw2655100 0.1 1014527
18:00+20nw354765 0.0 10141444
21:00+16sw236879 0.0 101547
26 july, mon
mon2600:00+15wsw2572100 0.0 1015115
03:00+14w397599 0.0 1016233
06:00+15wnw2784100 0.2 1016339
09:00+17nw36735 0.3 1017612
12:00+22nnw484484 0.2 10182119
15:00+20nne3649100 0.2 1018918
18:00+19ene235447 0.0 1019490
21:00+16e356640 0.0 1020178
27 july, tue
tue2700:00+10ese237698 0.0 102258
03:00+10sse1276100 0.0 102219
06:00+12sse1169100 0.0 102277
09:00+19ese11522 0.0 1021471
12:00+23nnw134010 0.0 10201398
15:00+25nnw363498 0.0 10192448
18:00+23nne234125 0.0 1018688
21:00+19ese11585 0.0 101611
28 july, wed
wed2800:00+17ssw246324 0.0 101673
03:00+14sw25715 0.0 101479
06:00+16w39733 0.1 1012250
09:00+23wnw475039 0.1 1010660
12:00+27nw573428 0.0 10092050
15:00+29nw462935 0.0 10073050
18:00+26nne344031 0.0 1006679
21:00+18e257555 0.0 1005141
29 july, thu
thu2900:00+14ese24922 1.0 100471
03:00+14sse119419 1.0 100320
06:00+15ssw139083 0.2 100192
09:00+21sw1364100 0.3 999396
12:00+26sw2440100 0.0 9971387
15:00+26sw5540100 0.0 9952089
18:00+21s5758100 0.3 994710
21:00+17ene3591100 1.6 993211